Weather History for Denver, CO

Change the Weather History Date:

Thursday, January 24, 2013

  Actual Average (KDEN) Record (KDEN)
Temperature  
Mean Temperature 48 °F 31 °F  
Max Temperature 64 °F 44 °F 68 °F (1970)
Min Temperature 32 °F 17 °F -18 °F (1872)
Degree Days  
Heating Degree Days 17 34  
Month to date heating degree days 821  
Since 1 July heating degree days 3289  
Cooling Degree Days 0 0  
Month to date cooling degree days 0  
Year to date cooling degree days 0  
Moisture  
Dew Point 16 °F    
Average Humidity 39    
Maximum Humidity 60    
Minimum Humidity 13    
Precipitation  
Precipitation 0.00 in 0.02 in 0.43 in (1921)
Month to date precipitation 0.32  
Year to date precipitation 0.32  
Snow  
Snow 0.00 in - - ()
Month to date snowfall  
Since 1 July snowfall  
Snow Depth -    
Sea Level Pressure  
Sea Level Pressure 30.07 in    
Wind  
Wind Speed 8 mph (West)    
Max Wind Speed 25 mph    
Max Gust Speed 32 mph    
Visibility 10 miles    
Events      
T = Trace of Precipitation, MM = Missing Value Source: NWS Daily Summary

Daily Weather History Graph

Daily Weather History Graph

Search for Another Location

Airport:

Trip Planner

Search our weather history database for the weather conditions in past years. The results will help you decide how hot, cold, wet, or windy it might be!

Date:

Astronomy

Jan. 24, 2013 Rise Set
Actual Time 7:12 AM MST 5:08 PM MST
Civil Twilight 6:43 AM MST 5:37 PM MST
Nautical Twilight 6:10 AM MST 6:10 PM MST
Astronomical Twilight 5:38 AM MST 6:42 PM MST
Moon 3:13 PM MST (1/24) 5:11 AM MST (1/24)
Length of Visible Light 10h 54m
Length of Day
9h 56m
Waxing Gibbous, 95% of the Moon is Illuminated
Jan 24
Waxing Gibbous
Jan 26
Full
Feb 3
Last Quarter
Feb 10
New
Feb 17
First Quarter

Hourly Weather History & Observations

Time (MST) Temp. Windchill Dew Point Humidity Pressure Visibility Wind Dir Wind Speed Gust Speed Precip Events Conditions
12:06 AM 42.8 °F 38.6 °F 14.0 °F 31% 30.12 in 10.0 mi WSW 6.9 mph - N/A   Clear
12:25 AM 41.0 °F 35.2 °F 14.0 °F 33% 30.12 in 10.0 mi WSW 9.2 mph - N/A   Clear
12:46 AM 39.2 °F 35.0 °F 17.6 °F 42% 30.12 in 10.0 mi West 5.8 mph - N/A   Clear
1:06 AM 37.4 °F 32.1 °F 19.4 °F 48% 30.11 in 10.0 mi West 6.9 mph - N/A   Clear
1:25 AM 35.6 °F 30.7 °F 19.4 °F 52% 30.11 in 10.0 mi West 5.8 mph - N/A   Clear
1:46 AM 35.6 °F 31.7 °F 19.4 °F 52% 30.11 in 10.0 mi West 4.6 mph - N/A   Clear
2:06 AM 33.8 °F 25.8 °F 21.2 °F 60% 30.10 in 10.0 mi WSW 10.4 mph - N/A   Clear
2:26 AM 33.8 °F 25.8 °F 19.4 °F 56% 30.10 in 10.0 mi WSW 10.4 mph - N/A   Clear
2:46 AM 35.6 °F 28.0 °F 17.6 °F 48% 30.10 in 10.0 mi WSW 10.4 mph - N/A   Clear
3:06 AM 33.8 °F 27.7 °F 21.2 °F 60% 30.09 in 10.0 mi WSW 6.9 mph - N/A   Clear
3:26 AM 35.6 °F 28.0 °F 17.6 °F 48% 30.08 in 10.0 mi WSW 10.4 mph - N/A   Clear
3:46 AM 37.4 °F 31.4 °F 19.4 °F 48% 30.07 in 10.0 mi West 8.1 mph - N/A   Clear
4:06 AM 32.0 °F 27.5 °F 19.4 °F 60% 30.07 in 10.0 mi NW 4.6 mph - N/A   Clear
4:26 AM 33.8 °F 27.7 °F 17.6 °F 52% 30.06 in 10.0 mi WNW 6.9 mph - N/A   Clear
4:46 AM 35.6 °F 30.7 °F 15.8 °F 44% 30.07 in 10.0 mi WNW 5.8 mph - N/A   Clear
5:06 AM 33.8 °F 25.3 °F 17.6 °F 52% 30.07 in 10.0 mi West 11.5 mph - N/A   Clear
5:26 AM 37.4 °F 28.2 °F 14.0 °F 38% 30.06 in 10.0 mi West 16.1 mph - N/A   Clear
5:46 AM 41.0 °F 33.1 °F 12.2 °F 31% 30.06 in 10.0 mi WSW 15.0 mph - N/A   Clear
6:06 AM 41.0 °F 38.0 °F 12.2 °F 31% 30.07 in 10.0 mi SW 4.6 mph - N/A   Clear
6:26 AM 39.2 °F 34.2 °F 12.2 °F 33% 30.07 in 10.0 mi SW 6.9 mph - N/A   Clear
6:46 AM 42.8 °F - 8.6 °F 25% 30.06 in 10.0 mi Calm Calm - N/A   Clear
7:04 AM 37.4 °F 34.9 °F 12.2 °F 36% 30.06 in 10.0 mi South 3.5 mph - N/A   Clear
8:50 AM 48.2 °F - 6.8 °F 19% 30.06 in 50.0 mi South 3.5 mph - N/A   Mostly Cloudy
11:47 AM 62.6 °F - 10.4 °F 13% 30.02 in 50.0 mi WNW 8.1 mph - N/A   Mostly Cloudy
12:47 PM 46.4 °F 42.9 °F 10.4 °F 23% 29.99 in 50.0 mi West 6.9 mph - N/A   Mostly Cloudy
1:48 PM 64.4 °F - 12.2 °F 13% 29.97 in 50.0 mi North 11.5 mph - N/A   Mostly Cloudy
2:48 PM 64.4 °F - 15.8 °F 15% 29.98 in 50.0 mi NW 6.9 mph - N/A   Mostly Cloudy
5:50 PM 55.4 °F - 26.6 °F 33% 30.04 in 50.0 mi WNW 25.3 mph 32.2 mph N/A   Mostly Cloudy
7:50 PM 46.4 °F 42.9 °F 26.6 °F 46% 30.09 in 50.0 mi NNE 6.9 mph - N/A   Mostly Cloudy